Satellite-Ground Cal/Val Site Overpasses Predictions

Prediction of Satellite NPP Overpassing Cal/Val Site: Antarctic Dome C

Ground Cal/Val Site Location: Latitude: -75.10, Longitude: 123.35; Satellite-Ground Site NADIR distance within 100 km.

Table of predicted overpasses for the next 14.0 days since TLE Epoch: 4/6/2013
Interval Starting Time Ending Time Minimum Distance Time Minimum Distance (km)
1 04/08/2013 14:54:14 04/08/2013 14:54:42 04/08/2013 14:54:28 26.85
2 04/09/2013 14:35:32 04/09/2013 14:35:49 04/09/2013 14:35:40 80.35
3 04/10/2013 07:37:05 04/10/2013 07:37:32 04/10/2013 07:37:19 37.05
4 04/11/2013 07:18:21 04/11/2013 07:18:40 04/11/2013 07:18:30 72.78
5 04/13/2013 15:00:38 04/13/2013 15:01:00 04/13/2013 15:00:49 64.07
6 04/14/2013 14:41:47 04/14/2013 14:42:13 04/14/2013 14:42:00 45.29
7 04/15/2013 07:43:29 04/15/2013 07:43:49 04/15/2013 07:43:39 72.32
8 04/16/2013 07:24:37 04/16/2013 07:25:05 04/16/2013 07:24:51 35.32


NCC Satellite Cal/Val Overpasses Prediction Service
